Weather reports worldwide

Advertisment
Norfolk VA/Intl, United States of America (72308): temperature & dewpoint: 07.12.2019 23:00:00 - 13.12.2019 23:00:00 (EST)Norfolk VA/Intl, United States of America (72308): wind speed & gusts: 07.12.2019 23:00:00 - 13.12.2019 23:00:00 (EST)Norfolk VA/Intl, United States of America (72308): wind direction: 07.12.2019 23:00:00 - 13.12.2019 23:00:00 (EST)Norfolk VA/Intl, United States of America (72308): reduced air pressure: 07.12.2019 23:00:00 - 13.12.2019 23:00:00 (EST)Norfolk VA/Intl, United States of America (72308): visibility: 07.12.2019 23:00:00 - 13.12.2019 23:00:00 (EST)Norfolk VA/Intl, United States of America (72308): precipitation: 07.12.2019 23:00:00 - 13.12.2019 23:00:00 (EST)
Date & Time tt [°C] td [°C] ff [km/h] ff [kn] fx [km/h] fx [kn] dd ppp [hPa] vv [km] rr [mm]
13.12.2019 23:00:00 12,2 11,1 0 0 - - N 1008,2 6 0,3
13.12.2019 22:00:00 11,1 10,0 11 6 - - NNW 1009,3 3,2 0,0
13.12.2019 21:00:00 11,7 10,6 8 4 - - NNW 1010,5 10 0,5
13.12.2019 20:00:00 11,7 10,6 13 7 - - N 1011,6 6 0,8
13.12.2019 19:00:00 11,7 11,1 5 3 - - - 1013,3 4,8 1,0
13.12.2019 18:00:00 11,1 10,0 13 7 - - N 1013,6 10 2,5
13.12.2019 17:00:00 10,6 8,9 16 9 - - N 1015,1 6 1,5
13.12.2019 16:00:00 10,0 8,9 24 13 - - N 1016,2 4,8 0,3
13.12.2019 15:00:00 10,6 8,9 22 12 - - N 1017,8 3,2 0,3
13.12.2019 14:00:00 10,6 9,4 16 9 - - N 1018,8 4,0 1,3
13.12.2019 13:00:00 12,2 10,6 13 7 - - N 1019,9 4,0 0,3
13.12.2019 12:00:00 13,9 11,7 9 5 - - NE 1021,7 8 0,0
13.12.2019 11:00:00 13,3 11,1 11 6 - - ENE 1023,2 16 0,0
13.12.2019 10:00:00 13,3 11,1 11 6 - - NE 1024,3 16 0,0
13.12.2019 09:00:00 12,2 10,0 8 4 - - ENE 1025,2 16 -
13.12.2019 08:00:00 11,7 9,4 9 5 - - N 1025,7 13 -
13.12.2019 07:00:00 11,1 9,4 13 7 - - ENE 1026,1 10 0,0
13.12.2019 06:00:00 11,1 8,9 11 6 - - E 1026,3 16 -
13.12.2019 05:00:00 10,6 8,3 16 9 - - E 1026,6 16 -
13.12.2019 04:00:00 10,6 7,8 11 6 - - E 1027,9 16 0,0
13.12.2019 03:00:00 10,0 6,1 13 7 - - E 1028,7 16 -
13.12.2019 02:00:00 9,4 5,0 13 7 - - E 1030,1 16 -
13.12.2019 01:00:00 9,4 5,0 13 7 - - ENE 1030,6 16 0,0
13.12.2019 00:00:00 8,9 3,9 11 6 - - ENE 1031,8 16 -
12.12.2019 23:00:00 8,3 3,3 11 6 - - ENE 1032,8 16 -
12.12.2019 22:00:00 6,7 3,3 13 7 - - NE 1033,7 16 0,0
12.12.2019 21:00:00 5,6 1,7 18 10 - - NNE 1034,7 16 -
12.12.2019 20:00:00 5,6 1,7 18 10 - - NNE 1035,4 16 -
12.12.2019 19:00:00 5,6 1,1 26 14 - - NNE 1035,8 16 0,0
12.12.2019 18:00:00 5,6 0,6 26 14 - - NNE 1036,0 16 -
12.12.2019 17:00:00 5,6 0,0 21 11 - - NE 1036,6 16 -
12.12.2019 16:00:00 6,1 0,0 15 8 - - NE 1037,3 16 0,0
12.12.2019 15:00:00 6,1 -0,6 15 8 - - NE 1037,6 16 -
12.12.2019 14:00:00 6,1 -0,6 15 8 - - NE 1038,0 16 -
12.12.2019 13:00:00 5,6 -1,1 15 8 - - NE 1038,3 16 0,0
12.12.2019 12:00:00 5,0 -1,7 15 8 - - N 1039,5 16 -
12.12.2019 11:00:00 5,0 -3,3 21 11 - - NNE 1039,9 16 -
12.12.2019 10:00:00 4,4 -4,4 22 12 - - NE 1040,2 16 0,0
12.12.2019 09:00:00 3,9 -5,0 24 13 - - NE 1039,3 16 -
12.12.2019 08:00:00 2,8 -5,0 21 11 - - NE 1039,2 16 -
12.12.2019 07:00:00 2,8 -5,0 22 12 - - NE 1038,6 16 0,0
12.12.2019 06:00:00 3,3 -3,9 26 14 - - NE 1037,8 16 -
12.12.2019 05:00:00 3,9 -3,3 28 15 - - NNE 1036,7 16 -
12.12.2019 04:00:00 3,9 -3,3 24 13 - - NNE 1036,2 16 0,0
12.12.2019 03:00:00 4,4 -5,0 29 16 - - N 1035,6 16 -
12.12.2019 02:00:00 5,0 -3,9 29 16 - - N 1035,1 16 -
12.12.2019 01:00:00 4,4 0,0 5 3 - - NNW 1034,2 16 0,0
12.12.2019 00:00:00 2,8 -0,6 0 0 - - N 1034,0 16 -
11.12.2019 23:00:00 4,4 0,0 5 3 - - WSW 1033,8 16 -
11.12.2019 22:00:00 4,4 -0,6 5 3 - - W 1032,8 16 0,0
11.12.2019 21:00:00 5,0 -1,1 8 4 - - WSW 1032,5 16 -
11.12.2019 20:00:00 5,6 -1,1 5 3 - - WSW 1032,0 16 -
11.12.2019 19:00:00 6,1 -1,7 8 4 - - WSW 1031,7 16 0,0
11.12.2019 18:00:00 5,0 -2,2 0 0 - - N 1030,9 16 -
11.12.2019 17:00:00 6,1 -2,2 5 3 - - - 1030,3 16 -
11.12.2019 16:00:00 6,7 -2,8 5 3 - - - 1029,1 16 0,0
11.12.2019 15:00:00 7,2 -3,9 13 7 - - N 1028,3 16 -
11.12.2019 14:00:00 6,7 -4,4 16 9 - - N 1027,9 16 -
11.12.2019 13:00:00 6,1 -3,9 21 11 - - N 1028,0 16 -
11.12.2019 12:00:00 6,1 -1,7 18 10 - - N 1028,1 16 -
11.12.2019 11:00:00 5,6 -1,7 21 11 - - N 1028,9 16 -
11.12.2019 10:00:00 4,4 0,0 21 11 - - N 1028,2 16 -
11.12.2019 09:00:00 3,9 -1,1 31 17 - - N 1028,1 16 0,0
11.12.2019 08:00:00 4,4 1,1 28 15 - - N 1026,5 16 0,0
11.12.2019 07:00:00 4,4 2,2 28 15 - - N 1025,5 8 0,5
11.12.2019 06:00:00 5,6 3,9 28 15 48 26 N 1023,8 6 0,3
11.12.2019 05:00:00 6,7 4,4 34 18 50 27 N 1022,6 13 0,3
11.12.2019 04:00:00 7,2 5,6 41 22 54 29 NNE 1022,1 8 1,3
11.12.2019 03:00:00 8,3 6,1 35 19 48 26 NNE 1022,0 6 0,8
11.12.2019 02:00:00 8,9 6,7 34 18 - - N 1020,3 8 0,0
11.12.2019 01:00:00 10,0 8,3 28 15 - - NNE 1019,5 15 0,3
11.12.2019 00:00:00 11,7 10,0 18 10 - - N 1019,1 16 0,0
10.12.2019 23:00:00 12,8 10,6 22 12 - - N 1018,9 16 0,0
10.12.2019 22:00:00 16,1 11,7 11 6 - - NNW 1018,1 16 -
10.12.2019 21:00:00 16,7 12,8 5 3 - - NW 1017,4 16 0,0
10.12.2019 20:00:00 17,2 12,8 8 4 - - NW 1016,8 16 -
10.12.2019 19:00:00 17,8 14,4 9 5 - - NW 1015,7 16 0,0
10.12.2019 18:00:00 19,4 15,0 13 7 - - WNW 1014,3 16 -
10.12.2019 17:00:00 23,3 16,1 26 14 - - SSW 1012,6 16 -
10.12.2019 16:00:00 24,4 16,1 28 15 52 28 SW 1012,1 16 0,0
10.12.2019 15:00:00 24,4 16,1 28 15 - - SSW 1011,7 16 -
10.12.2019 14:00:00 24,4 16,1 34 18 57 31 SW 1011,9 16 -
10.12.2019 13:00:00 23,9 16,1 37 20 57 31 SW 1012,0 16 0,0
10.12.2019 12:00:00 23,9 15,6 34 18 55 30 SSW 1012,6 16 -
10.12.2019 11:00:00 21,7 15,6 35 19 - - SSW 1013,6 16 -
10.12.2019 10:00:00 20,6 16,1 28 15 - - SW 1014,5 16 0,0
10.12.2019 09:00:00 19,4 16,1 28 15 - - SW 1014,4 16 -
10.12.2019 08:00:00 18,9 15,6 28 15 - - SSW 1014,1 16 -
10.12.2019 07:00:00 17,8 15,0 16 9 - - SSW 1014,1 16 0,0
10.12.2019 06:00:00 17,8 15,0 18 10 - - SSW 1013,8 16 -
10.12.2019 05:00:00 18,3 14,4 22 12 - - SSW 1013,4 16 -
10.12.2019 04:00:00 18,3 14,4 26 14 - - SSW 1013,4 16 0,0
10.12.2019 03:00:00 17,8 15,0 26 14 - - SW 1013,7 16 -
10.12.2019 02:00:00 18,3 15,0 22 12 - - SW 1013,4 16 -
10.12.2019 01:00:00 18,9 15,6 35 19 - - SSW 1013,3 16 0,0
10.12.2019 00:00:00 18,3 15,6 28 15 - - SSW 1013,6 16 -
09.12.2019 23:00:00 18,9 15,6 28 15 - - SW 1013,8 16 -
09.12.2019 22:00:00 19,4 16,1 37 20 52 28 SSW 1013,6 16 0,0
09.12.2019 21:00:00 18,9 15,6 35 19 - - SSW 1013,6 16 -
09.12.2019 20:00:00 18,3 14,4 31 17 - - SSW 1013,8 16 -
09.12.2019 19:00:00 17,8 13,9 26 14 - - SSW 1014,2 16 0,0
09.12.2019 18:00:00 17,8 13,3 24 13 - - SSW 1013,9 16 -
09.12.2019 17:00:00 17,8 13,3 24 13 - - SSW 1014,1 16 -
09.12.2019 16:00:00 18,3 14,4 28 15 - - SSW 1014,3 16 0,0
09.12.2019 15:00:00 18,9 15,6 18 10 - - S 1014,1 16 -
09.12.2019 14:00:00 18,3 16,7 18 10 - - S 1015,2 16 -
09.12.2019 13:00:00 17,2 15,6 21 11 - - S 1016,9 10 0,0
09.12.2019 12:00:00 16,7 15,0 18 10 - - S 1018,0 2,4 -
09.12.2019 11:00:00 15,6 13,9 15 8 - - SSW 1019,4 6 -
09.12.2019 10:00:00 13,9 12,2 9 5 - - S 1020,4 4,0 0,0
09.12.2019 09:00:00 13,3 12,2 15 8 - - S 1020,3 16 -
09.12.2019 08:00:00 11,1 9,4 5 3 - - S 1020,4 16 -
09.12.2019 07:00:00 10,6 9,4 5 3 - - S 1020,4 16 0,3
09.12.2019 06:00:00 10,0 8,9 8 4 - - E 1020,6 11 0,0
09.12.2019 05:00:00 10,0 8,3 5 3 - - NE 1021,1 10 3,0
09.12.2019 04:00:00 10,6 8,9 8 4 - - - 1022,1 10 0,5
09.12.2019 03:00:00 13,3 11,1 9 5 - - W 1021,6 11 0,3
09.12.2019 02:00:00 15,6 11,7 21 11 - - S 1021,2 16 -
09.12.2019 01:00:00 11,1 9,4 8 4 - - S 1022,2 16 0,0
09.12.2019 00:00:00 11,1 9,4 8 4 - - N 1023,9 16 0,3
08.12.2019 23:00:00 11,1 8,9 8 4 - - N 1024,9 15 0,0
08.12.2019 22:00:00 11,1 8,9 9 5 - - N 1025,6 16 0,0
08.12.2019 21:00:00 11,1 8,9 0 0 - - N 1026,3 16 -
08.12.2019 20:00:00 11,7 7,8 0 0 - - N 1027,2 16 -
08.12.2019 19:00:00 11,7 7,8 0 0 - - N 1026,8 16 0,0
08.12.2019 18:00:00 11,1 6,7 8 4 - - ENE 1027,4 16 -
08.12.2019 17:00:00 11,1 5,6 11 6 - - E 1027,9 16 -
08.12.2019 16:00:00 11,7 5,0 15 8 - - E 1028,3 16 0,0
08.12.2019 15:00:00 12,2 4,4 18 10 - - E 1028,6 16 -
08.12.2019 14:00:00 12,8 3,9 21 11 - - E 1029,1 16 -
08.12.2019 13:00:00 12,8 3,3 11 6 - - E 1029,9 16 0,0
08.12.2019 12:00:00 12,8 2,8 13 7 - - ESE 1030,8 16 -
08.12.2019 11:00:00 11,7 2,2 16 9 - - ESE 1031,7 16 -
08.12.2019 10:00:00 10,6 1,7 22 12 - - E 1032,0 16 0,0
08.12.2019 09:00:00 9,4 1,7 11 6 - - E 1031,7 16 -
08.12.2019 08:00:00 6,7 1,1 9 5 - - ENE 1031,6 16 -
08.12.2019 07:00:00 6,1 0,6 8 4 - - ENE 1031,7 16 0,0
08.12.2019 06:00:00 5,0 1,1 8 4 - - NE 1031,6 16 -
08.12.2019 05:00:00 5,0 0,6 11 6 - - NE 1031,5 16 -
08.12.2019 04:00:00 5,0 0,0 16 9 - - NNE 1031,5 16 0,0
08.12.2019 03:00:00 5,0 -1,7 13 7 - - NE 1031,7 16 -
08.12.2019 02:00:00 5,6 -1,1 18 10 - - NE 1031,7 16 -
08.12.2019 01:00:00 5,6 -2,2 15 8 - - NE 1031,6 16 0,0
08.12.2019 00:00:00 5,6 -3,3 16 9 - - NE 1031,6 16 -
07.12.2019 23:00:00 5,6 -1,7 11 6 - - NE 1031,2 16 -

tt = temperature
td = dewpoint
ff = wind speed
fx = gusts
dd = wind direction
ppp = reduced air pressure
vv = visibility
rr = precipitation

Next stations